NUSANTARA SATU

Last updated on Sun Apr 12 2026 00:02:55 GMT+0000 (Coordinated Universal Time)

1 44048U 19009A 26100.90787530 -.00000233 00000+0 00000+0 0 9994 2 44048 0.0316 140.5728 0002861 313.3061 218.1014 1.00271629 26095
UTC large
Height (km)
Speed (km/s)
/
Latitude / Longitude
Inclination (degrees)
Orbital Period (minutes)
Azimuth
Elevation
Range (km)
Doppler Factor

Next 0 passes for location: London (51.5072 / 0.1276)

Sorry there are no passes over London.
NUSANTARA SATU